FW9954 Weather Reports


Display with metric or nautical units.
time (UTC)temp
F
wind
direction
speed
MPH
gust
MPH
rain 1hr
in
rain 24hr
in
rain mn
in
humidity
%
barometer
mb
20210926222138 81 84 0.0 3.0 0.00 0.00 0.00 55 1018.3
20210926222025 81 84 1.0 3.0 0.00 0.00 0.00 57 1018.3
20210926221929 81 84 1.0 3.0 0.00 0.00 0.00 55 1018.3
20210926221837 81 84 1.0 3.0 0.00 0.00 0.00 55 1018.3
20210926221713 81 94 1.0 3.0 0.00 0.00 0.00 53 1018.3
20210926221647 81 96 1.0 3.0 0.00 0.00 0.00 53 1018.3
20210926221516 82 63 1.0 2.0 0.00 0.00 0.00 54 1018.2
20210926221420 82 63 0.0 2.0 0.00 0.00 0.00 54 1018.2
20210926221325 82 63 0.0 2.0 0.00 0.00 0.00 50 1018.2
20210926221224 82 63 0.0 3.0 0.00 0.00 0.00 49 1018.2
20210926221146 82 63 0.0 3.0 0.00 0.00 0.00 49 1018.2
20210926221014 82 63 0.0 3.0 0.00 0.00 0.00 51 1018.2
20210926220938 82 63 0.0 3.0 0.00 0.00 0.00 51 1018.2
20210926220816 82 63 0.0 3.0 0.00 0.00 0.00 49 1018.2
20210926220720 82 63 0.0 3.0 0.00 0.00 0.00 49 1018.2
20210926220630 82 63 1.0 3.0 0.00 0.00 0.00 49 1018.3
20210926220519 82 63 2.0 3.0 0.00 0.00 0.00 50 1018.3
20210926220424 82 70 2.0 3.0 0.00 0.00 0.00 50 1018.3
20210926220328 82 96 2.0 3.0 0.00 0.00 0.00 54 1018.3
20210926220223 82 54 1.0 3.0 0.00 0.00 0.00 52 1018.3
20210926220142 83 54 0.0 3.0 0.00 0.00 0.00 51 1018.3
20210926220014 82 30 1.0 3.0 0.00 0.00 0.00 48 1018.2
20210926215916 82 30 1.0 3.0 0.00 0.00 0.00 49 1018.3
20210926215821 82 27 2.0 3.0 0.00 0.00 0.00 49 1018.3
20210926215724 82 36 2.0 5.0 0.00 0.00 0.00 48 1018.3
20210926215631 82 88 2.0 5.0 0.00 0.00 0.00 51 1018.3
20210926215518 82 84 2.0 5.0 0.00 0.00 0.00 49 1018.3
20210926215423 82 12 2.0 5.0 0.00 0.00 0.00 50 1018.3
20210926215329 82 9 2.0 5.0 0.00 0.00 0.00 49 1018.3
20210926215224 82 100 2.0 5.0 0.00 0.00 0.00 48 1018.4
20210926215142 82 86 1.0 5.0 0.00 0.00 0.00 53 1018.4
20210926215012 82 38 2.0 5.0 0.00 0.00 0.00 52 1018.3
20210926214916 82 27 2.0 5.0 0.00 0.00 0.00 51 1018.4
20210926214821 82 23 1.0 3.0 0.00 0.00 0.00 49 1018.4
20210926214719 82 19 1.0 3.0 0.00 0.00 0.00 52 1018.4
20210926214641 82 339 2.0 3.0 0.00 0.00 0.00 48 1018.4
20210926214530 82 339 1.0 3.0 0.00 0.00 0.00 50 1018.4
20210926214414 82 360 1.0 4.0 0.00 0.00 0.00 51 1018.4
20210926214318 82 360 1.0 4.0 0.00 0.00 0.00 48 1018.3
20210926214220 82 359 1.0 4.0 0.00 0.00 0.00 50 1018.5
20210926214128 82 360 2.0 4.0 0.00 0.00 0.00 49 1018.4
20210926214036 82 31 1.0 5.0 0.00 0.00 0.00 52 1018.4
20210926213913 82 306 1.0 5.0 0.00 0.00 0.00 50 1018.4
20210926213817 82 306 2.0 5.0 0.00 0.00 0.00 51 1018.4
20210926213723 82 1 2.0 5.0 0.00 0.00 0.00 50 1018.3
20210926213629 82 16 2.0 5.0 0.00 0.00 0.00 52 1018.4
20210926213520 82 348 2.0 5.0 0.00 0.00 0.00 50 1018.3
20210926213421 82 57 2.0 5.0 0.00 0.00 0.00 52 1018.2
20210926213324 82 51 2.0 5.0 0.00 0.00 0.00 51 1018.3
20210926213224 82 350 3.0 5.0 0.00 0.00 0.00 49 1018.3
20210926213151 82 328 3.0 3.0 0.00 0.00 0.00 49 1018.3
20210926213034 82 354 2.0 3.0 0.00 0.00 0.00 48 1018.3
20210926212912 82 27 2.0 4.0 0.00 0.00 0.00 50 1018.3
20210926212821 83 24 2.0 4.0 0.00 0.00 0.00 47 1018.4
20210926212724 83 1 1.0 4.0 0.00 0.00 0.00 48 1018.3
20210926212629 83 46 2.0 4.0 0.00 0.00 0.00 48 1018.3
20210926212517 83 25 2.0 4.0 0.00 0.00 0.00 47 1018.3
20210926212421 83 42 1.0 4.0 0.00 0.00 0.00 48 1018.4
20210926212325 83 30 1.0 4.0 0.00 0.00 0.00 46 1018.3
20210926212221 83 32 2.0 4.0 0.00 0.00 0.00 48 1018.4
20210926212142 83 84 2.0 4.0 0.00 0.00 0.00 48 1018.4
20210926212029 84 79 3.0 4.0 0.00 0.00 0.00 47 1018.3
20210926211913 83 102 1.0 3.0 0.00 0.00 0.00 49 1018.3
20210926211816 83 58 1.0 3.0 0.00 0.00 0.00 51 1018.4
20210926211719 83 359 1.0 3.0 0.00 0.00 0.00 50 1018.3
20210926211630 83 360 1.0 3.0 0.00 0.00 0.00 50 1018.4
20210926211538 83 27 2.0 3.0 0.00 0.00 0.00 47 1018.4
20210926211416 83 67 1.0 3.0 0.00 0.00 0.00 48 1018.4
20210926211320 83 128 2.0 3.0 0.00 0.00 0.00 46 1018.3
20210926211223 83 84 2.0 3.0 0.00 0.00 0.00 47 1018.3
20210926211130 83 84 2.0 3.0 0.00 0.00 0.00 49 1018.3
20210926211019 83 46 2.0 4.0 0.00 0.00 0.00 46 1018.4
20210926210927 83 6 2.0 4.0 0.00 0.00 0.00 46 1018.4
20210926210832 84 13 2.0 4.0 0.00 0.00 0.00 48 1018.3
20210926210725 84 18 1.0 4.0 0.00 0.00 0.00 47 1018.3
20210926210644 84 65 1.0 4.0 0.00 0.00 0.00 48 1018.3
20210926210512 83 94 1.0 4.0 0.00 0.00 0.00 47 1018.3
20210926210417 83 94 1.0 4.0 0.00 0.00 0.00 47 1018.4
20210926210325 83 86 2.0 4.0 0.00 0.00 0.00 50 1018.4
20210926210220 83 117 2.0 4.0 0.00 0.00 0.00 48 1018.3
20210926210142 83 74 1.0 4.0 0.00 0.00 0.00 48 1018.3
20210926210031 83 108 1.0 4.0 0.00 0.00 0.00 51 1018.4
20210926205932 82 144 1.0 4.0 0.00 0.00 0.00 48 1018.4
20210926205831 82 172 2.0 4.0 0.00 0.00 0.00 49 1018.3
20210926205727 83 220 2.0 4.0 0.00 0.00 0.00 48 1018.3
20210926205646 83 184 2.0 4.0 0.00 0.00 0.00 48 1018.3
20210926205531 83 31 2.0 4.0 0.00 0.00 0.00 49 1018.4
20210926205416 83 1 3.0 4.0 0.00 0.00 0.00 47 1018.4
20210926205318 83 65 2.0 4.0 0.00 0.00 0.00 51 1018.3
20210926205213 83 87 1.0 4.0 0.00 0.00 0.00 50 1018.4
20210926205138 83 95 2.0 4.0 0.00 0.00 0.00 50 1018.4
20210926205026 83 167 2.0 4.0 0.00 0.00 0.00 47 1018.3
20210926204928 83 190 1.0 4.0 0.00 0.00 0.00 48 1018.3
20210926204827 82 156 2.0 4.0 0.00 0.00 0.00 53 1018.2
20210926204719 82 156 3.0 4.0 0.00 0.00 0.00 48 1018.7
20210926204640 82 134 2.0 4.0 0.00 0.00 0.00 49 1018.7
20210926204528 82 256 2.0 4.0 0.00 0.00 0.00 49 1018.3
20210926204415 83 189 2.0 4.0 0.00 0.00 0.00 47 1018.3
20210926204319 83 137 1.0 4.0 0.00 0.00 0.00 50 1018.3
20210926204222 83 117 2.0 4.0 0.00 0.00 0.00 51 1018.3
20210926204130 82 213 1.0 4.0 0.00 0.00 0.00 51 1018.3
20210926204016 82 256 1.0 4.0 0.00 0.00 0.00 49 1018.3
20210926203919 82 255 2.0 4.0 0.00 0.00 0.00 47 1018.3
20210926203827 83 182 2.0 4.0 0.00 0.00 0.00 48 1018.3
20210926203722 83 113 3.0 5.0 0.00 0.00 0.00 51 1018.3
20210926203642 83 115 3.0 5.0 0.00 0.00 0.00 47 1018.3
20210926203530 83 178 2.0 5.0 0.00 0.00 0.00 48 1018.3
20210926203413 83 71 1.0 5.0 0.00 0.00 0.00 50 1018.4
20210926203318 82 170 1.0 5.0 0.00 0.00 0.00 52 1018.4
20210926203226 82 170 2.0 5.0 0.00 0.00 0.00 50 1018.4
20210926203130 82 146 2.0 5.0 0.00 0.00 0.00 47 1018.3
20210926203018 83 136 2.0 5.0 0.00 0.00 0.00 46 1018.3
20210926202923 83 194 2.0 5.0 0.00 0.00 0.00 46 1018.3
20210926202826 84 156 1.0 4.0 0.00 0.00 0.00 49 1018.3
20210926202721 83 132 1.0 4.0 0.00 0.00 0.00 50 1018.3
20210926202645 83 132 1.0 4.0 0.00 0.00 0.00 50 1018.3
20210926202514 83 71 2.0 4.0 0.00 0.00 0.00 48 1018.4
20210926202417 83 169 2.0 4.0 0.00 0.00 0.00 47 1018.4
20210926202321 83 140 2.0 4.0 0.00 0.00 0.00 46 1018.4
20210926202226 84 122 2.0 4.0 0.00 0.00 0.00 46 1018.4
20210926202129 83 146 2.0 4.0 0.00 0.00 0.00 47 1018.5
20210926202021 84 110 3.0 4.0 0.00 0.00 0.00 47 1018.4
20210926201925 83 110 2.0 4.0 0.00 0.00 0.00 49 1018.5
20210926201829 83 54 1.0 3.0 0.00 0.00 0.00 50 1018.5
20210926201723 83 84 2.0 3.0 0.00 0.00 0.00 48 1018.4
20210926201641 83 55 1.0 4.0 0.00 0.00 0.00 46 1018.4
20210926201529 83 73 2.0 4.0 0.00 0.00 0.00 46 1018.5
20210926201416 84 125 2.0 4.0 0.00 0.00 0.00 47 1018.4
20210926201320 84 75 2.0 5.0 0.00 0.00 0.00 50 1018.5
20210926201226 84 58 2.0 5.0 0.00 0.00 0.00 49 1018.5
20210926201130 83 95 2.0 5.0 0.00 0.00 0.00 51 1018.4
20210926201015 83 166 2.0 5.0 0.00 0.00 0.00 49 1018.4
20210926200919 83 49 2.0 5.0 0.00 0.00 0.00 48 1018.4
20210926200822 83 118 2.0 5.0 0.00 0.00 0.00 47 1018.5
20210926200719 83 113 2.0 5.0 0.00 0.00 0.00 51 1018.4
20210926200637 83 107 3.0 5.0 0.00 0.00 0.00 48 1018.5
20210926200521 83 102 2.0 5.0 0.00 0.00 0.00 47 1018.5
20210926200425 83 130 2.0 4.0 0.00 0.00 0.00 53 1018.4
20210926200329 83 359 2.0 5.0 0.00 0.00 0.00 49 1018.4
20210926200220 83 358 2.0 5.0 0.00 0.00 0.00 47 1018.5
20210926200144 83 11 2.0 5.0 0.00 0.00 0.00 47 1018.5
20210926200031 83 13 2.0 5.0 0.00 0.00 0.00 49 1018.4
20210926195935 83 19 2.0 5.0 0.00 0.00 0.00 47 1018.4
20210926195812 83 41 2.0 5.0 0.00 0.00 0.00 49 1018.4
20210926195725 83 11 3.0 5.0 0.00 0.00 0.00 46 1018.5
20210926195645 83 75 3.0 5.0 0.00 0.00 0.00 48 1018.5
20210926195517 83 95 3.0 4.0 0.00 0.00 0.00 50 1018.4
20210926195422 83 28 2.0 4.0 0.00 0.00 0.00 50 1018.4
20210926195325 83 52 2.0 4.0 0.00 0.00 0.00 49 1018.4
20210926195212 83 20 1.0 4.0 0.00 0.00 0.00 51 1018.4
20210926195133 82 8 1.0 4.0 0.00 0.00 0.00 49 1018.4
20210926195019 82 158 2.0 4.0 0.00 0.00 0.00 47 1018.4
20210926194919 83 141 2.0 5.0 0.00 0.00 0.00 52 1018.5
20210926194827 82 131 2.0 5.0 0.00 0.00 0.00 51 1018.4
20210926194721 83 359 2.0 5.0 0.00 0.00 0.00 48 1018.5
20210926194643 83 359 2.0 5.0 0.00 0.00 0.00 48 1018.5
20210926194529 83 360 3.0 5.0 0.00 0.00 0.00 47 1018.6
20210926194414 84 359 2.0 5.0 0.00 0.00 0.00 51 1018.6
20210926194318 83 4 1.0 5.0 0.00 0.00 0.00 52 1018.6
20210926194225 83 54 2.0 5.0 0.00 0.00 0.00 51 1018.6
20210926194129 84 111 3.0 5.0 0.00 0.00 0.00 47 1018.6
20210926194015 84 114 2.0 5.0 0.00 0.00 0.00 47 1018.6
20210926193917 84 101 1.0 5.0 0.00 0.00 0.00 50 1018.5
20210926193819 84 84 2.0 5.0 0.00 0.00 0.00 48 1018.6
20210926193721 83 84 2.0 5.0 0.00 0.00 0.00 48 1018.6
20210926193630 83 97 3.0 5.0 0.00 0.00 0.00 48 1018.6
20210926193515 83 99 2.0 5.0 0.00 0.00 0.00 51 1018.5
20210926193419 83 37 2.0 5.0 0.00 0.00 0.00 52 1018.5
20210926193321 83 75 3.0 5.0 0.00 0.00 0.00 49 1018.6
20210926193225 83 20 2.0 4.0 0.00 0.00 0.00 51 1018.5
20210926193131 83 56 2.0 7.0 0.00 0.00 0.00 50 1018.5
20210926193017 83 179 2.0 7.0 0.00 0.00 0.00 49 1018.5
20210926192915 83 64 2.0 7.0 0.00 0.00 0.00 52 1018.5
20210926192816 83 71 2.0 7.0 0.00 0.00 0.00 48 1018.5
20210926192724 82 119 2.0 7.0 0.00 0.00 0.00 51 1018.5
20210926192638 82 84 1.0 7.0 0.00 0.00 0.00 50 1018.5
20210926192536 82 41 2.0 7.0 0.00 0.00 0.00 49 1018.6
20210926192440 83 354 3.0 7.0 0.00 0.00 0.00 49 1018.6
20210926191025 82 150 3.0 5.0 0.00 0.00 0.00 49 1018.7
20210926190927 83 165 2.0 5.0 0.00 0.00 0.00 51 1018.9
20210926190815 82 89 1.0 5.0 0.00 0.00 0.00 53 1018.8
20210926190719 82 27 2.0 5.0 0.00 0.00 0.00 49 1018.9
20210926190654 82 27 3.0 5.0 0.00 0.00 0.00 49 1018.9
20210926190515 82 120 3.0 5.0 0.00 0.00 0.00 50 1018.9
20210926190418 82 71 3.0 5.0 0.00 0.00 0.00 51 1018.9
20210926190322 82 25 2.0 6.0 0.00 0.00 0.00 49 1018.9
20210926190221 83 205 1.0 6.0 0.00 0.00 0.00 49 1018.9
20210926190143 82 27 1.0 6.0 0.00 0.00 0.00 50 1018.9
20210926190031 82 24 2.0 6.0 0.00 0.00 0.00 50 1018.9
20210926185917 82 32 2.0 6.0 0.00 0.00 0.00 50 1019.0
20210926185821 82 57 3.0 6.0 0.00 0.00 0.00 50 1019.0
20210926185720 82 37 3.0 6.0 0.00 0.00 0.00 48 1019.0
20210926185642 82 67 3.0 6.0 0.00 0.00 0.00 50 1019.0
20210926185531 81 31 2.0 6.0 0.00 0.00 0.00 48 1019.0
20210926185416 81 287 2.0 4.0 0.00 0.00 0.00 51 1019.0
20210926185320 81 265 2.0 4.0 0.00 0.00 0.00 48 1019.0
20210926185215 81 276 2.0 4.0 0.00 0.00 0.00 50 1019.0
20210926185136 81 284 2.0 4.0 0.00 0.00 0.00 52 1019.0
20210926185030 81 325 2.0 5.0 0.00 0.00 0.00 53 1019.0
20210926184913 80 276 3.0 5.0 0.00 0.00 0.00 50 1019.0
20210926184817 81 250 3.0 5.0 0.00 0.00 0.00 49 1019.1
20210926184716 81 335 3.0 5.0 0.00 0.00 0.00 50 1019.0
20210926184652 81 293 2.0 5.0 0.00 0.00 0.00 50 1019.0
20210926184513 81 272 3.0 6.0 0.00 0.00 0.00 51 1019.1
20210926184422 81 331 3.0 6.0 0.00 0.00 0.00 52 1019.2
20210926184326 81 360 3.0 6.0 0.00 0.00 0.00 49 1019.1
20210926184222 81 303 3.0 6.0 0.00 0.00 0.00 52 1019.2
20210926184143 81 318 3.0 6.0 0.00 0.00 0.00 52 1019.2
20210926184032 81 319 3.0 6.0 0.00 0.00 0.00 51 1019.2
20210926183918 81 330 3.0 6.0 0.00 0.00 0.00 52 1019.2
20210926183826 81 312 3.0 6.0 0.00 0.00 0.00 48 1019.2
20210926183719 81 314 4.0 6.0 0.00 0.00 0.00 51 1019.2
20210926183640 81 332 4.0 6.0 0.00 0.00 0.00 51 1019.2
20210926183529 81 338 2.0 6.0 0.00 0.00 0.00 48 1019.2
20210926183414 81 280 1.0 6.0 0.00 0.00 0.00 48 1019.3
20210926183317 81 292 1.0 6.0 0.00 0.00 0.00 49 1019.3
20210926183224 81 292 2.0 6.0 0.00 0.00 0.00 53 1019.3
20210926183130 81 297 3.0 6.0 0.00 0.00 0.00 53 1019.3
20210926183037 81 273 3.0 6.0 0.00 0.00 0.00 51 1019.3
20210926182913 81 231 3.0 6.0 0.00 0.00 0.00 49 1019.4
20210926182817 81 296 3.0 6.0 0.00 0.00 0.00 48 1019.4
20210926182721 82 334 4.0 6.0 0.00 0.00 0.00 50 1019.4
20210926182631 82 345 4.0 6.0 0.00 0.00 0.00 52 1019.4
20210926182519 82 36 4.0 6.0 0.00 0.00 0.00 51 1019.4
20210926182424 82 4 3.0 5.0 0.00 0.00 0.00 49 1019.4
20210926182328 82 33 4.0 5.0 0.00 0.00 0.00 51 1019.5
20210926182222 82 360 3.0 5.0 0.00 0.00 0.00 48 1019.4
20210926182144 82 357 3.0 5.0 0.00 0.00 0.00 48 1019.4
20210926182017 82 359 1.0 5.0 0.00 0.00 0.00 51 1019.4
20210926181922 82 102 1.0 5.0 0.00 0.00 0.00 48 1019.4
20210926181826 82 335 2.0 5.0 0.00 0.00 0.00 50 1019.5
20210926181721 82 66 3.0 6.0 0.00 0.00 0.00 51 1019.5
20210926181643 82 344 3.0 6.0 0.00 0.00 0.00 48 1019.5
20210926181531 82 339 2.0 6.0 0.00 0.00 0.00 50 1019.5
20210926181420 82 347 3.0 6.0 0.00 0.00 0.00 51 1019.5
20210926181324 82 60 3.0 6.0 0.00 0.00 0.00 49 1019.5
20210926181219 82 53 3.0 6.0 0.00 0.00 0.00 50 1019.5
20210926181141 82 65 3.0 6.0 0.00 0.00 0.00 50 1019.5
20210926181028 82 345 2.0 6.0 0.00 0.00 0.00 54 1019.6
20210926180931 82 32 3.0 6.0 0.00 0.00 0.00 50 1019.6
20210926180819 81 1 2.0 6.0 0.00 0.00 0.00 53 1019.7
20210926180725 81 360 2.0 6.0 0.00 0.00 0.00 49 1019.6
20210926180631 81 321 2.0 6.0 0.00 0.00 0.00 53 1019.7
20210926180538 81 48 1.0 6.0 0.00 0.00 0.00 50 1019.7
20210926180415 81 1 1.0 6.0 0.00 0.00 0.00 51 1019.7
20210926180319 81 1 2.0 6.0 0.00 0.00 0.00 53 1019.7
20210926180215 81 1 3.0 6.0 0.00 0.00 0.00 51 1019.8
20210926180136 81 359 4.0 6.0 0.00 0.00 0.00 51 1019.9
20210926180021 81 347 4.0 6.0 0.00 0.00 0.00 50 1019.7
20210926175925 81 347 3.0 6.0 0.00 0.00 0.00 51 1019.9
20210926175830 82 341 2.0 5.0 0.00 0.00 0.00 50 1019.8
20210926175723 82 45 3.0 5.0 0.00 0.00 0.00 51 1019.8
20210926175645 82 27 3.0 5.0 0.00 0.00 0.00 54 1019.8
20210926175519 82 73 2.0 3.0 0.00 0.00 0.00 50 1019.9
20210926175423 82 32 2.0 3.0 0.00 0.00 0.00 50 1019.9
20210926175327 82 99 2.0 3.0 0.00 0.00 0.00 50 1020.0
20210926175222 82 174 2.0 3.0 0.00 0.00 0.00 52 1019.9
20210926175143 82 153 1.0 6.0 0.00 0.00 0.00 55 1019.9
20210926175031 82 150 2.0 6.0 0.00 0.00 0.00 49 1019.9
20210926174917 81 120 2.0 6.0 0.00 0.00 0.00 52 1020.1
20210926174823 81 115 1.0 6.0 0.00 0.00 0.00 54 1020.1
20210926174718 80 117 1.0 6.0 0.00 0.00 0.00 56 1020.1
20210926174639 80 49 1.0 6.0 0.00 0.00 0.00 55 1020.1
20210926174529 79 44 1.0 6.0 0.00 0.00 0.00 52 1020.2
20210926174433 79 16 3.0 6.0 0.00 0.00 0.00 52 1020.2
20210926174320 79 360 3.0 6.0 0.00 0.00 0.00 53 1020.2
20210926174223 79 4 2.0 6.0 0.00 0.00 0.00 53 1020.2
20210926174131 79 314 3.0 6.0 0.00 0.00 0.00 54 1020.2
20210926174038 79 273 4.0 6.0 0.00 0.00 0.00 52 1020.2
20210926173915 79 240 4.0 6.0 0.00 0.00 0.00 53 1020.2
20210926173819 79 243 4.0 6.0 0.00 0.00 0.00 55 1020.2
20210926173718 79 308 2.0 6.0 0.00 0.00 0.00 57 1020.2
20210926173641 79 281 2.0 6.0 0.00 0.00 0.00 57 1020.2
20210926173530 79 285 3.0 6.0 0.00 0.00 0.00 54 1020.3
20210926173415 79 269 2.0 6.0 0.00 0.00 0.00 55 1020.3
20210926173320 79 275 3.0 6.0 0.00 0.00 0.00 57 1020.3
20210926173215 79 304 4.0 6.0 0.00 0.00 0.00 51 1020.4
20210926173138 79 320 4.0 6.0 0.00 0.00 0.00 51 1020.4
20210926173029 80 312 3.0 6.0 0.00 0.00 0.00 52 1020.3
20210926172914 80 32 3.0 6.0 0.00 0.00 0.00 51 1020.4
20210926172818 80 346 4.0 6.0 0.00 0.00 0.00 51 1020.4
20210926172721 81 332 5.0 6.0 0.00 0.00 0.00 54 1020.3
20210926172628 81 340 4.0 6.0 0.00 0.00 0.00 54 1020.4
20210926172521 81 360 4.0 6.0 0.00 0.00 0.00 54 1020.3
20210926172425 81 335 3.0 6.0 0.00 0.00 0.00 53 1020.4
20210926172328 81 15 2.0 4.0 0.00 0.00 0.00 54 1020.4
20210926172222 82 150 2.0 4.0 0.00 0.00 0.00 50 1020.4
20210926172143 82 73 2.0 4.0 0.00 0.00 0.00 52 1020.4
20210926172031 81 78 2.0 3.0 0.00 0.00 0.00 55 1020.5
20210926171919 81 79 1.0 3.0 0.00 0.00 0.00 52 1020.4
20210926171822 81 345 1.0 3.0 0.00 0.00 0.00 52 1020.4
20210926171717 81 21 1.0 3.0 0.00 0.00 0.00 57 1020.4
20210926171639 80 359 1.0 3.0 0.00 0.00 0.00 57 1020.4
20210926171528 80 65 2.0 3.0 0.00 0.00 0.00 55 1020.4
20210926171432 80 281 2.0 3.0 0.00 0.00 0.00 52 1020.6
20210926171320 80 243 1.0 3.0 0.00 0.00 0.00 54 1020.5
20210926171224 80 260 1.0 3.0 0.00 0.00 0.00 51 1020.5
20210926171128 81 232 1.0 3.0 0.00 0.00 0.00 53 1020.6
20210926171015 81 110 1.0 3.0 0.00 0.00 0.00 55 1020.6
20210926170920 80 165 1.0 3.0 0.00 0.00 0.00 54 1020.5
20210926170821 80 169 1.0 3.0 0.00 0.00 0.00 57 1020.5
20210926170719 80 212 2.0 4.0 0.00 0.00 0.00 56 1020.6
20210926170641 80 36 2.0 4.0 0.00 0.00 0.00 52 1020.6
20210926170529 80 16 2.0 6.0 0.00 0.00 0.00 52 1020.6
20210926170413 80 28 2.0 7.0 0.00 0.00 0.00 53 1020.6
20210926170338 80 22 2.0 7.0 0.00 0.00 0.00 53 1020.6
20210926170215 80 37 2.0 7.0 0.00 0.00 0.00 52 1020.6
20210926170150 80 37 2.0 7.0 0.00 0.00 0.00 52 1020.6
20210926170015 80 352 3.0 7.0 0.00 0.00 0.00 52 1020.7
20210926165937 80 340 3.0 7.0 0.00 0.00 0.00 52 1020.7
20210926165813 80 14 4.0 7.0 0.00 0.00 0.00 52 1020.7
20210926165716 80 23 4.0 7.0 0.00 0.00 0.00 54 1020.6
20210926165651 80 359 4.0 7.0 0.00 0.00 0.00 54 1020.6
20210926165512 80 1 2.0 7.0 0.00 0.00 0.00 54 1020.7
20210926165419 80 141 2.0 7.0 0.00 0.00 0.00 55 1020.7
20210926165322 79 41 2.0 7.0 0.00 0.00 0.00 54 1020.8
20210926165225 79 340 2.0 7.0 0.00 0.00 0.00 53 1020.7
20210926165130 79 359 3.0 7.0 0.00 0.00 0.00 51 1020.7
20210926165038 80 329 4.0 7.0 0.00 0.00 0.00 53 1020.7
20210926164914 80 1 4.0 7.0 0.00 0.00 0.00 55 1020.8
20210926164817 80 339 4.0 7.0 0.00 0.00 0.00 53 1020.9
20210926164723 80 333 3.0 7.0 0.00 0.00 0.00 53 1020.9
20210926164628 80 346 3.0 7.0 0.00 0.00 0.00 55 1020.8
20210926164516 80 328 3.0 5.0 0.00 0.00 0.00 55 1020.8
20210926164419 80 30 2.0 4.0 0.00 0.00 0.00 52 1020.8
20210926164322 80 28 1.0 3.0 0.00 0.00 0.00 56 1020.8
20210926164226 79 337 1.0 3.0 0.00 0.00 0.00 55 1020.8
20210926164135 79 179 1.0 3.0 0.00 0.00 0.00 56 1020.8
20210926164021 79 162 1.0 4.0 0.00 0.00 0.00 53 1020.8
20210926163925 79 160 2.0 4.0 0.00 0.00 0.00 54 1020.7
20210926163828 79 155 2.0 4.0 0.00 0.00 0.00 54 1020.9
20210926163723 79 233 2.0 4.0 0.00 0.00 0.00 53 1020.9
20210926163644 79 348 2.0 4.0 0.00 0.00 0.00 53 1020.9
20210926163516 79 359 2.0 6.0 0.00 0.00 0.00 55 1021.0
20210926163419 80 352 1.0 6.0 0.00 0.00 0.00 54 1021.0
20210926163322 80 32 2.0 6.0 0.00 0.00 0.00 52 1021.0
20210926163226 80 24 2.0 6.0 0.00 0.00 0.00 53 1021.0
20210926163131 80 23 2.0 6.0 0.00 0.00 0.00 56 1021.0
20210926163019 80 87 3.0 6.0 0.00 0.00 0.00 54 1021.0
20210926162923 79 60 3.0 6.0 0.00 0.00 0.00 55 1020.9
20210926162830 79 70 3.0 6.0 0.00 0.00 0.00 55 1020.9
20210926162724 79 1 3.0 6.0 0.00 0.00 0.00 55 1020.9
20210926162645 80 25 3.0 6.0 0.00 0.00 0.00 56 1020.9
20210926162514 79 68 2.0 6.0 0.00 0.00 0.00 57 1021.0
20210926162417 79 344 2.0 6.0 0.00 0.00 0.00 57 1021.0
20210926162322 79 40 3.0 6.0 0.00 0.00 0.00 55 1021.0
20210926162220 79 305 3.0 6.0 0.00 0.00 0.00 55 1021.0
20210926162141 79 266 2.0 6.0 0.00 0.00 0.00 55 1021.0
20210926162029 79 34 3.0 6.0 0.00 0.00 0.00 54 1021.1
20210926161913 79 350 4.0 6.0 0.00 0.00 0.00 56 1021.1
20210926161817 79 314 3.0 6.0 0.00 0.00 0.00 55 1021.1
20210926161715 80 37 2.0 5.0 0.00 0.00 0.00 59 1021.0
20210926161638 79 11 2.0 5.0 0.00 0.00 0.00 59 1021.0
20210926161525 79 359 3.0 5.0 0.00 0.00 0.00 55 1021.1
20210926161429 79 20 3.0 5.0 0.00 0.00 0.00 55 1021.0
20210926161332 79 17 2.0 5.0 0.00 0.00 0.00 55 1021.0
20210926161225 79 99 2.0 5.0 0.00 0.00 0.00 54 1021.1
20210926161147 79 131 2.0 5.0 0.00 0.00 0.00 57 1021.1
20210926161020 79 34 3.0 5.0 0.00 0.00 0.00 55 1021.1
20210926160924 79 14 3.0 5.0 0.00 0.00 0.00 55 1021.0
20210926160828 79 349 2.0 6.0 0.00 0.00 0.00 57 1021.1
20210926160719 79 18 3.0 6.0 0.00 0.00 0.00 56 1021.0
20210926160640 79 1 2.0 6.0 0.00 0.00 0.00 54 1021.0
20210926160529 79 352 2.0 6.0 0.00 0.00 0.00 56 1021.1
20210926160417 79 1 3.0 6.0 0.00 0.00 0.00 58 1021.0
20210926160321 79 5 3.0 6.0 0.00 0.00 0.00 55 1021.1
20210926160225 79 25 4.0 6.0 0.00 0.00 0.00 59 1021.1
20210926160131 79 359 4.0 6.0 0.00 0.00 0.00 56 1021.2
20210926160019 79 359 3.0 5.0 0.00 0.00 0.00 57 1021.1
20210926155924 79 338 2.0 5.0 0.00 0.00 0.00 57 1021.2
20210926155832 79 296 3.0 5.0 0.00 0.00 0.00 54 1021.2
20210926155716 79 50 4.0 5.0 0.00 0.00 0.00 57 1021.2
20210926155653 79 17 4.0 5.0 0.00 0.00 0.00 57 1021.2
20210926155515 79 346 3.0 4.0 0.00 0.00 0.00 55 1021.2
20210926155438 79 1 3.0 5.0 0.00 0.00 0.00 58 1021.2
20210926155314 79 281 2.0 5.0 0.00 0.00 0.00 56 1021.2
20210926155222 79 291 2.0 5.0 0.00 0.00 0.00 57 1021.2
20210926155129 79 73 2.0 5.0 0.00 0.00 0.00 58 1021.2
20210926155019 79 73 2.0 7.0 0.00 0.00 0.00 60 1021.1
20210926154922 79 51 3.0 7.0 0.00 0.00 0.00 56 1021.1
20210926154826 79 49 2.0 7.0 0.00 0.00 0.00 59 1021.1
20210926154722 79 35 3.0 7.0 0.00 0.00 0.00 60 1021.1
20210926154643 79 120 3.0 7.0 0.00 0.00 0.00 57 1021.1
20210926154515 79 71 2.0 7.0 0.00 0.00 0.00 62 1021.1
20210926154420 79 128 2.0 7.0 0.00 0.00 0.00 58 1021.2
20210926154323 79 4 3.0 7.0 0.00 0.00 0.00 55 1021.2
20210926154227 79 61 3.0 5.0 0.00 0.00 0.00 56 1021.3
20210926154132 80 38 2.0 5.0 0.00 0.00 0.00 57 1021.3
20210926154021 79 83 2.0 4.0 0.00 0.00 0.00 56 1021.2
20210926153929 79 91 2.0 4.0 0.00 0.00 0.00 59 1021.3
20210926153814 79 55 1.0 4.0 0.00 0.00 0.00 59 1021.3
20210926153717 79 82 2.0 4.0 0.00 0.00 0.00 59 1021.3
20210926153654 79 84 2.0 4.0 0.00 0.00 0.00 56 1021.3
20210926153515 79 169 1.0 4.0 0.00 0.00 0.00 59 1021.3
20210926153418 78 178 1.0 4.0 0.00 0.00 0.00 57 1021.3
20210926153328 78 77 1.0 4.0 0.00 0.00 0.00 57 1021.3
20210926153221 78 155 2.0 4.0 0.00 0.00 0.00 56 1021.3
20210926153142 78 129 2.0 5.0 0.00 0.00 0.00 60 1021.3
20210926153030 78 153 3.0 5.0 0.00 0.00 0.00 57 1021.2
20210926152932 79 63 3.0 5.0 0.00 0.00 0.00 56 1021.2
20210926152815 78 82 2.0 5.0 0.00 0.00 0.00 59 1021.1
20210926152724 78 91 1.0 5.0 0.00 0.00 0.00 57 1021.1
20210926152629 78 124 2.0 5.0 0.00 0.00 0.00 58 1021.1
20210926152538 78 124 2.0 5.0 0.00 0.00 0.00 59 1021.1
20210926152413 78 161 3.0 5.0 0.00 0.00 0.00 56 1021.1
20210926152318 78 149 3.0 5.0 0.00 0.00 0.00 58 1021.1
20210926152213 78 62 2.0 4.0 0.00 0.00 0.00 59 1021.1
20210926152138 78 44 2.0 4.0 0.00 0.00 0.00 58 1021.1
20210926152026 78 32 2.0 4.0 0.00 0.00 0.00 59 1021.0
20210926151931 77 101 3.0 4.0 0.00 0.00 0.00 58 1020.9
20210926151816 77 188 2.0 4.0 0.00 0.00 0.00 57 1020.9
20210926151721 78 142 2.0 4.0 0.00 0.00 0.00 57 1020.9
20210926151628 78 120 2.0 4.0 0.00 0.00 0.00 58 1021.0
20210926151519 77 105 2.0 4.0 0.00 0.00 0.00 62 1021.0
20210926151422 77 20 1.0 4.0 0.00 0.00 0.00 58 1021.0
20210926151325 77 248 1.0 4.0 0.00 0.00 0.00 57 1021.0
20210926151219 77 249 2.0 4.0 0.00 0.00 0.00 57 1021.0
20210926151139 77 302 2.0 4.0 0.00 0.00 0.00 57 1021.0
20210926151026 77 4 1.0 4.0 0.00 0.00 0.00 61 1021.1
20210926150914 76 53 1.0 4.0 0.00 0.00 0.00 62 1021.1
20210926150817 76 283 2.0 4.0 0.00 0.00 0.00 60 1021.1
20210926150720 77 283 2.0 4.0 0.00 0.00 0.00 60 1021.1
20210926150654 77 283 2.0 4.0 0.00 0.00 0.00 60 1021.1
20210926150514 77 351 1.0 4.0 0.00 0.00 0.00 60 1021.1
20210926150415 77 350 1.0 4.0 0.00 0.00 0.00 60 1021.1
20210926150319 77 10 2.0 4.0 0.00 0.00 0.00 62 1021.1
20210926150226 77 33 2.0 4.0 0.00 0.00 0.00 60 1021.1
20210926150130 77 27 2.0 4.0 0.00 0.00 0.00 60 1021.1
20210926150017 77 28 1.0 4.0 0.00 0.00 0.00 61 1021.0
20210926145921 77 122 1.0 3.0 0.00 0.00 0.00 59 1021.0
20210926145823 77 103 2.0 3.0 0.00 0.00 0.00 60 1021.1
20210926145726 77 127 2.0 3.0 0.00 0.00 0.00 61 1021.1
20210926145635 76 102 1.0 3.0 0.00 0.00 0.00 64 1021.1
20210926145523 76 52 1.0 3.0 0.00 0.00 0.00 63 1021.1
20210926145425 75 179 1.0 3.0 0.00 0.00 0.00 62 1021.2
20210926145328 75 240 1.0 3.0 0.00 0.00 0.00 63 1021.1
20210926145223 75 240 2.0 3.0 0.00 0.00 0.00 62 1021.1
20210926145144 75 240 2.0 3.0 0.00 0.00 0.00 63 1021.1
20210926145015 75 257 2.0 3.0 0.00 0.00 0.00 64 1021.2
20210926144938 75 274 2.0 3.0 0.00 0.00 0.00 65 1021.2
20210926144814 75 266 1.0 3.0 0.00 0.00 0.00 63 1021.2
20210926144717 75 290 1.0 3.0 0.00 0.00 0.00 64 1021.0
20210926144652 75 290 1.0 3.0 0.00 0.00 0.00 64 1021.0
20210926144513 75 311 2.0 3.0 0.00 0.00 0.00 64 1021.0
20210926144415 75 320 1.0 3.0 0.00 0.00 0.00 64 1021.1
20210926144322 75 335 1.0 3.0 0.00 0.00 0.00 64 1021.1
20210926144227 75 327 1.0 3.0 0.00 0.00 0.00 64 1021.1
20210926144131 75 327 2.0 3.0 0.00 0.00 0.00 63 1021.2
20210926144038 75 327 2.0 3.0 0.00 0.00 0.00 63 1021.2
20210926143914 75 314 2.0 3.0 0.00 0.00 0.00 64 1021.2
20210926143817 75 331 2.0 3.0 0.00 0.00 0.00 64 1021.2
20210926143725 75 334 1.0 3.0 0.00 0.00 0.00 63 1021.2
20210926143631 75 10 1.0 3.0 0.00 0.00 0.00 64 1021.0
20210926143538 75 10 2.0 3.0 0.00 0.00 0.00 64 1021.0
20210926143414 75 359 2.0 3.0 0.00 0.00 0.00 68 1021.1
20210926143318 75 17 2.0 3.0 0.00 0.00 0.00 65 1021.1
20210926143213 75 359 1.0 3.0 0.00 0.00 0.00 68 1021.1
20210926143134 74 281 2.0 3.0 0.00 0.00 0.00 67 1021.2
20210926143026 74 265 2.0 3.0 0.00 0.00 0.00 65 1021.1
20210926142930 75 245 2.0 3.0 0.00 0.00 0.00 65 1021.1
20210926142813 75 259 1.0 3.0 0.00 0.00 0.00 66 1021.2
20210926142717 75 250 1.0 3.0 0.00 0.00 0.00 66 1021.1
20210926142653 75 165 1.0 3.0 0.00 0.00 0.00 66 1021.1
20210926142512 75 179 1.0 3.0 0.00 0.00 0.00 65 1021.1
20210926142420 75 304 1.0 3.0 0.00 0.00 0.00 64 1021.1
20210926142324 75 356 1.0 3.0 0.00 0.00 0.00 63 1021.1
20210926142219 75 16 1.0 3.0 0.00 0.00 0.00 65 1021.1
20210926142141 75 280 1.0 3.0 0.00 0.00 0.00 63 1021.1
20210926142029 75 280 1.0 3.0 0.00 0.00 0.00 64 1021.1
20210926141913 75 56 0.0 3.0 0.00 0.00 0.00 68 1021.0
20210926141821 75 40 0.0 3.0 0.00 0.00 0.00 66 1021.0
20210926141725 75 40 0.0 3.0 0.00 0.00 0.00 69 1021.0
20210926141632 75 33 0.0 3.0 0.00 0.00 0.00 69 1021.0
20210926141521 75 44 1.0 3.0 0.00 0.00 0.00 65 1021.0
20210926141425 75 44 1.0 3.0 0.00 0.00 0.00 65 1021.0
20210926141328 75 69 0.0 2.0 0.00 0.00 0.00 67 1021.0
20210926141216 75 237 0.0 2.0 0.00 0.00 0.00 69 1021.0
20210926141152 75 237 0.0 2.0 0.00 0.00 0.00 69 1021.0
20210926141012 74 237 0.0 2.0 0.00 0.00 0.00 69 1021.1
20210926140916 74 247 0.0 2.0 0.00 0.00 0.00 67 1021.2
20210926140820 74 247 1.0 2.0 0.00 0.00 0.00 66 1021.2
20210926140724 74 247 1.0 2.0 0.00 0.00 0.00 65 1021.0
20210926140633 74 295 0.0 2.0 0.00 0.00 0.00 68 1021.1
20210926140521 73 311 0.0 2.0 0.00 0.00 0.00 70 1021.1
20210926140425 73 311 1.0 2.0 0.00 0.00 0.00 68 1021.1
20210926140329 73 353 1.0 4.0 0.00 0.00 0.00 67 1021.1
20210926140224 73 352 1.0 4.0 0.00 0.00 0.00 65 1021.0
20210926140144 73 281 1.0 4.0 0.00 0.00 0.00 65 1021.0
20210926140016 73 281 1.0 4.0 0.00 0.00 0.00 68 1021.1
20210926135920 73 262 1.0 4.0 0.00 0.00 0.00 67 1021.0
20210926135823 73 262 1.0 4.0 0.00 0.00 0.00 69 1021.0
20210926135717 72 235 2.0 4.0 0.00 0.00 0.00 68 1020.9
20210926135639 72 236 2.0 4.0 0.00 0.00 0.00 69 1020.9
20210926135528 73 257 2.0 4.0 0.00 0.00 0.00 71 1020.9
20210926135414 72 274 1.0 3.0 0.00 0.00 0.00 72 1021.0
20210926135316 72 266 1.0 3.0 0.00 0.00 0.00 71 1021.0
20210926135219 72 256 1.0 3.0 0.00 0.00 0.00 70 1020.9
20210926135154 72 256 1.0 3.0 0.00 0.00 0.00 71 1020.9
20210926135015 72 262 1.0 3.0 0.00 0.00 0.00 72 1020.9
20210926134917 72 205 1.0 3.0 0.00 0.00 0.00 74 1021.0
20210926134820 72 205 1.0 3.0 0.00 0.00 0.00 71 1021.0
20210926134727 72 233 1.0 3.0 0.00 0.00 0.00 74 1021.0
20210926134632 72 265 2.0 3.0 0.00 0.00 0.00 75 1020.9
20210926134519 72 274 1.0 3.0 0.00 0.00 0.00 74 1020.8
20210926134422 72 280 1.0 3.0 0.00 0.00 0.00 73 1020.9
20210926134325 72 263 2.0 3.0 0.00 0.00 0.00 76 1020.8
20210926134228 71 276 2.0 3.0 0.00 0.00 0.00 74 1020.9
20210926134136 71 276 1.0 3.0 0.00 0.00 0.00 79 1020.9
20210926134023 71 304 0.0 2.0 0.00 0.00 0.00 79 1020.9
20210926133926 71 359 1.0 2.0 0.00 0.00 0.00 78 1020.9
20210926133829 71 359 0.0 1.0 0.00 0.00 0.00 78 1020.8
20210926133713 71 359 1.0 1.0 0.00 0.00 0.00 80 1020.8
20210926133647 71 359 1.0 1.0 0.00 0.00 0.00 80 1020.8
20210926133519 70 359 1.0 1.0 0.00 0.00 0.00 82 1020.7
20210926133422 70 359 1.0 1.0 0.00 0.00 0.00 81 1020.8
20210926133326 70 114 1.0 1.0 0.00 0.00 0.00 81 1020.7
20210926133222 70 114 0.0 1.0 0.00 0.00 0.00 83 1020.8
20210926133143 70 114 0.0 1.0 0.00 0.00 0.00 83 1020.8
20210926133031 70 114 0.0 1.0 0.00 0.00 0.00 83 1020.7
20210926132918 70 114 0.0 1.0 0.00 0.00 0.00 87 1020.7
20210926132821 70 114 0.0 1.0 0.00 0.00 0.00 87 1020.6
20210926132724 70 114 0.0 1.0 0.00 0.00 0.00 88 1020.7
20210926132630 69 114 0.0 1.0 0.00 0.00 0.00 87 1020.7
20210926132537 69 114 0.0 1.0 0.00 0.00 0.00 85 1020.7
20210926132413 69 114 0.0 1.0 0.00 0.00 0.00 88 1020.7
20210926132317 69 114 0.0 1.0 0.00 0.00 0.00 89 1020.6
20210926132217 68 114 0.0 1.0 0.00 0.00 0.00 87 1020.6
20210926132138 68 114 0.0 1.0 0.00 0.00 0.00 86 1020.6
20210926132025 68 114 0.0 1.0 0.00 0.00 0.00 86 1020.7
20210926131931 68 114 0.0 1.0 0.00 0.00 0.00 88 1020.7
20210926131814 68 114 0.0 1.0 0.00 0.00 0.00 86 1020.6
20210926131713 68 114 0.0 1.0 0.00 0.00 0.00 86 1020.6
20210926131635 68 114 0.0 1.0 0.00 0.00 0.00 87 1020.5
20210926131523 67 114 0.0 1.0 0.00 0.00 0.00 86 1020.5
20210926131427 67 114 0.0 1.0 0.00 0.00 0.00 88 1020.5
20210926131330 67 114 0.0 1.0 0.00 0.00 0.00 87 1020.4
20210926131224 67 114 0.0 1.0 0.00 0.00 0.00 88 1020.4
20210926131145 67 114 0.0 1.0 0.00 0.00 0.00 89 1020.4
20210926131037 67 114 0.0 1.0 0.00 0.00 0.00 88 1020.3
20210926130915 67 114 1.0 1.0 0.00 0.00 0.00 90 1020.4
20210926130820 66 114 0.0 1.0 0.00 0.00 0.00 91 1020.3
20210926130723 66 114 0.0 1.0 0.00 0.00 0.00 92 1020.3
20210926130631 66 114 0.0 1.0 0.00 0.00 0.00 91 1020.3
20210926130514 66 114 0.0 1.0 0.00 0.00 0.00 91 1020.4
20210926130422 66 114 0.0 1.0 0.00 0.00 0.00 92 1020.4
20210926130326 66 114 0.0 0.0 0.00 0.00 0.00 94 1020.4
20210926130221 66 114 0.0 0.0 0.00 0.00 0.00 94 1020.6
20210926130143 66 114 0.0 0.0 0.00 0.00 0.00 94 1020.6
20210926130029 65 114 0.0 0.0 0.00 0.00 0.00 94 1020.5
20210926125931 65 114 0.0 0.0 0.00 0.00 0.00 95 1020.5
20210926125818 65 114 0.0 0.0 0.00 0.00 0.00 95 1020.4
20210926125719 65 114 0.0 0.0 0.00 0.00 0.00 94 1020.4
20210926125655 65 114 0.0 0.0 0.00 0.00 0.00 94 1020.4
20210926125514 65 114 0.0 0.0 0.00 0.00 0.00 95 1020.4
20210926125419 65 114 0.0 0.0 0.00 0.00 0.00 96 1020.5
20210926125322 65 114 0.0 0.0 0.00 0.00 0.00 96 1020.5
20210926125221 65 114 0.0 0.0 0.00 0.00 0.00 97 1020.5
20210926125142 64 114 0.0 0.0 0.00 0.00 0.00 97 1020.5
20210926125012 64 114 0.0 0.0 0.00 0.00 0.00 97 1020.5
20210926124915 64 114 0.0 0.0 0.00 0.00 0.00 97 1020.4
20210926124819 64 114 0.0 0.0 0.00 0.00 0.00 97 1020.6
20210926124723 64 114 0.0 0.0 0.00 0.00 0.00 97 1020.4
20210926124630 64 114 0.0 0.0 0.00 0.00 0.00 98 1020.5
20210926124523 63 114 0.0 0.0 0.00 0.00 0.00 98 1020.5
20210926124428 63 114 0.0 0.0 0.00 0.00 0.00 98 1020.4
20210926124331 63 114 0.0 0.0 0.00 0.00 0.00 98 1020.4
20210926124216 63 114 0.0 0.0 0.00 0.00 0.00 98 1020.4
20210926124151 63 114 0.0 0.0 0.00 0.00 0.00 98 1020.4
20210926124013 63 114 0.0 0.0 0.00 0.00 0.00 98 1020.4
20210926123920 62 114 0.0 0.0 0.00 0.00 0.00 98 1020.4
20210926123823 62 114 0.0 0.0 0.00 0.00 0.00 99 1020.4
20210926123718 62 114 0.0 0.0 0.00 0.00 0.00 99 1020.4
20210926123639 62 114 0.0 0.0 0.00 0.00 0.00 99 1020.4
20210926123527 62 114 0.0 0.0 0.00 0.00 0.00 99 1020.4
20210926123431 61 114 0.0 0.0 0.00 0.00 0.00 99 1020.3
20210926123318 61 114 0.0 0.0 0.00 0.00 0.00 98 1020.2
20210926123223 60 114 0.0 0.0 0.00 0.00 0.00 98 1020.3
20210926123129 60 114 0.0 0.0 0.00 0.00 0.00 98 1020.2
20210926123037 60 114 0.0 0.0 0.00 0.00 0.00 98 1020.2
20210926122914 60 114 0.0 0.0 0.00 0.00 0.00 99 1020.3
20210926122818 60 114 0.0 0.0 0.00 0.00 0.00 98 1020.3
20210926122717 60 114 0.0 0.0 0.00 0.00 0.00 98 1020.2
20210926122640 60 114 0.0 0.0 0.00 0.00 0.00 98 1020.2
20210926122530 60 114 0.0 0.0 0.00 0.00 0.00 98 1020.1
20210926122414 59 114 0.0 0.0 0.00 0.00 0.00 98 1020.1
20210926122317 59 114 0.0 0.0 0.00 0.00 0.00 98 1020.2
20210926122213 59 114 0.0 0.0 0.00 0.00 0.00 98 1020.1
20210926122139 59 114 0.0 0.0 0.00 0.00 0.00 98 1020.1
20210926122028 59 114 0.0 0.0 0.00 0.00 0.00 98 1020.1
20210926121912 59 114 0.0 0.0 0.00 0.00 0.00 98 1020.1
20210926121817 59 114 0.0 0.0 0.00 0.00 0.00 98 1020.2
20210926121712 59 114 0.0 0.0 0.00 0.00 0.00 98 1020.1
20210926121635 59 114 0.0 0.0 0.00 0.00 0.00 98 1020.1
20210926121528 58 114 0.0 0.0 0.00 0.00 0.00 99 1020.0
20210926121414 59 114 0.0 0.0 0.00 0.00 0.00 98 1020.1
20210926121320 58 114 0.0 0.0 0.00 0.00 0.00 98 1020.0
20210926121226 58 114 0.0 0.0 0.00 0.00 0.00 98 1020.0
20210926121133 58 114 0.0 0.0 0.00 0.00 0.00 98 1020.0
20210926121024 58 114 0.0 0.0 0.00 0.00 0.00 98 1020.0
20210926120913 58 114 0.0 0.0 0.00 0.00 0.00 98 1020.0
20210926120818 58 114 0.0 0.0 0.00 0.00 0.00 98 1019.9
20210926120722 58 114 0.0 0.0 0.00 0.00 0.00 98 1019.9
20210926120630 58 114 0.0 0.0 0.00 0.00 0.00 98 1019.9
20210926120519 58 114 0.0 0.0 0.00 0.00 0.00 98 1019.9
20210926120423 58 114 0.0 0.0 0.00 0.00 0.00 98 1019.9
20210926120331 57 114 0.0 0.0 0.00 0.00 0.00 98 1019.9
20210926120216 57 114 0.0 0.0 0.00 0.00 0.00 98 1019.9
20210926120151 57 114 0.0 0.0 0.00 0.00 0.00 98 1019.9
20210926120013 57 114 0.0 0.0 0.00 0.00 0.00 98 1019.8
20210926115918 57 114 0.0 0.0 0.00 0.00 0.00 98 1019.8
20210926115823 57 114 0.0 0.0 0.00 0.00 0.00 98 1019.9
20210926115723 57 114 0.0 0.0 0.00 0.00 0.00 98 1019.9
20210926115644 57 114 0.0 0.0 0.00 0.00 0.00 98 1019.9
20210926115531 57 114 0.0 0.0 0.00 0.00 0.00 98 1019.7
20210926115415 57 114 0.0 0.0 0.00 0.00 0.00 98 1019.7
20210926115319 57 114 0.0 0.0 0.00 0.00 0.00 98 1019.7
20210926115224 57 114 0.0 0.0 0.00 0.00 0.00 98 1019.8
20210926115134 57 114 0.0 0.0 0.00 0.00 0.00 98 1019.7
20210926115021 57 114 0.0 0.0 0.00 0.00 0.00 98 1019.7
20210926114926 57 114 0.0 0.0 0.00 0.00 0.00 98 1019.6
20210926114831 57 114 0.0 0.0 0.00 0.00 0.00 98 1019.7
20210926114726 57 114 0.0 0.0 0.00 0.00 0.00 98 1019.7
20210926114646 57 114 0.0 0.0 0.00 0.00 0.00 98 1019.7
20210926114520 57 114 0.0 0.0 0.00 0.00 0.00 98 1019.7
20210926114423 57 114 0.0 0.0 0.00 0.00 0.00 98 1019.6
20210926114328 57 114 0.0 0.0 0.00 0.00 0.00 98 1019.7
20210926114222 57 114 0.0 0.0 0.00 0.00 0.00 98 1019.6
20210926114144 57 114 0.0 0.0 0.00 0.00 0.00 98 1019.6
20210926114013 57 114 0.0 0.0 0.00 0.00 0.00 98 1019.6
20210926113922 57 114 0.0 0.0 0.00 0.00 0.00 98 1019.6
20210926113827 57 114 0.0 0.0 0.00 0.00 0.00 98 1019.6
20210926113721 57 114 0.0 0.0 0.00 0.00 0.00 98 1019.7
20210926113642 57 114 0.0 0.0 0.00 0.00 0.00 98 1019.7
20210926113512 56 114 0.0 0.0 0.00 0.00 0.00 98 1019.6
20210926113417 56 114 0.0 0.0 0.00 0.00 0.00 98 1019.6
20210926113327 56 114 0.0 0.0 0.00 0.00 0.00 98 1019.6
20210926113221 56 114 0.0 0.0 0.00 0.00 0.00 98 1019.5
20210926113143 56 114 0.0 0.0 0.00 0.00 0.00 98 1019.5
20210926113031 56 114 0.0 0.0 0.00 0.00 0.00 98 1019.6
20210926112935 56 114 0.0 0.0 0.00 0.00 0.00 98 1019.5
20210926112812 56 114 0.0 0.0 0.00 0.00 0.00 98 1019.6
20210926112720 57 114 0.0 0.0 0.00 0.00 0.00 98 1019.6
20210926112629 56 114 0.0 0.0 0.00 0.00 0.00 98 1019.6
20210926112517 57 114 0.0 0.0 0.00 0.00 0.00 98 1019.6
20210926112422 57 114 0.0 0.0 0.00 0.00 0.00 98 1019.5
20210926112325 57 114 0.0 0.0 0.00 0.00 0.00 98 1019.6
20210926112220 57 114 0.0 0.0 0.00 0.00 0.00 98 1019.5
20210926112141 57 114 0.0 0.0 0.00 0.00 0.00 98 1019.5
20210926112014 57 114 0.0 0.0 0.00 0.00 0.00 98 1019.5
20210926111915 57 114 0.0 0.0 0.00 0.00 0.00 98 1019.5
20210926111818 57 114 0.0 0.0 0.00 0.00 0.00 98 1019.4
20210926111714 57 114 0.0 0.0 0.00 0.00 0.00 98 1019.5
20210926111646 57 114 0.0 0.0 0.00 0.00 0.00 98 1019.5
20210926111544 57 114 0.0 0.0 0.00 0.00 0.00 98 1019.5